Wind_Speed
14 15 14 15 14 15 15 15 16 16 16 16 15 15 15 15 16 16 16 16 17 17 18 17 17 18 18 18 18 18 18 18 18 19 19 19 19 19 19 20 20 19 19
15 15 15 15 15 15 16 17 16 17 16 16 16 17 16 16 17 17 18 18 18 18 19 19 19 19 19 19 19 19 19 19 19 19 20 20 20 20 20 20 20 20 19
16 16 16 16 16 16 16 16 16 17 17 17 18 18 18 18 18 19 19 19 19 19 20 20 21 20 20 21 21 21 20 21 20 20 21 21 21 21 21 21 20 20 19
18 17 17 16 16 16 17 17 17 17 18 19 19 20 20 19 19 20 20 20 20 21 21 21 22 22 21 22 22 22 22 22 22 22 22 22 22 22 22 22 21 21 20
18 18 18 18 18 18 18 18 17 18 19 20 20 21 21 21 21 21 21 21 21 21 22 22 23 23 22 23 23 23 23 23 23 23 23 23 23 23 23 23 23 22 21
18 19 19 18 19 19 18 18 18 19 20 21 22 22 22 23 22 22 21 22 22 22 23 23 23 23 23 23 24 24 24 24 24 24 24 24 24 24 24 24 24 23 22
19 20 19 19 19 19 19 19 19 20 21 22 23 23 24 24 24 23 23 23 23 23 23 24 24 24 24 24 24 25 25 26 25 25 24 24 24 24 24 24 23 23 23
21 21 20 20 20 20 20 21 21 21 21 22 22 23 23 24 24 24 24 24 24 24 24 24 24 24 25 25 25 26 25 26 26 25 25 25 25 24 24 24 24 24 24
21 22 21 21 21 21 21 22 22 21 21 21 21 21 22 23 24 25 25 25 25 26 26 26 26 26 26 26 27 26 26 26 26 26 26 26 26 25 24 25 26 26 26
22 21 22 22 22 22 22 21 22 21 21 21 22 22 23 24 25 25 26 26 26 27 27 27 27 27 28 28 27 27 26 26 26 27 26 27 27 26 26 25 26 27 27
22 21 21 22 22 23 22 23 24 24 24 23 23 23 24 25 26 27 27 27 28 28 28 27 27 28 29 29 28 28 27 27 27 27 27 27 27 27 27 26 27 27 28
21 20 21 21 22 23 23 24 25 25 25 25 25 25 26 27 27 28 28 29 29 29 28 28 28 28 28 29 29 29 29 28 27 28 28 28 28 27 28 28 27 28 28
20 20 22 23 23 24 24 25 25 26 27 26 27 27 27 28 29 29 29 30 30 30 30 29 29 29 29 29 29 30 30 29 29 29 29 29 28 28 28 28 28 28 28
21 21 23 25 25 25 25 25 26 26 27 27 28 28 29 29 30 30 30 31 31 31 31 31 31 30 29 30 30 30 29 30 30 30 29 29 28 28 28 29 29 29 29
21 22 23 24 25 25 26 26 26 27 27 28 28 29 29 30 30 31 31 31 32 31 31 31 31 30 30 30 31 31 30 30 30 30 30 29 29 28 29 29 28 28 29
22 22 23 24 24 25 26 26 27 27 28 28 29 30 30 31 31 32 32 31 31 31 30 30 30 30 30 30 31 31 31 31 30 30 30 30 29 29 29 29 29 28 29
23 23 24 24 24 25 27 28 28 28 28 29 30 31 31 31 31 31 31 31 31 31 30 30 31 30 30 31 30 32 32 32 31 30 30 31 30 30 30 30 30 29 29
24 24 24 25 25 25 27 27 27 27 28 29 29 30 30 30 30 30 30 30 31 31 31 31 31 31 31 31 31 31 31 32 31 31 31 31 31 30 30 30 30 30 30
23 24 24 25 24 25 25 26 26 26 27 27 28 28 28 28 28 29 29 30 30 30 31 31 32 32 32 32 32 32 32 32 31 31 32 32 31 31 31 31 31 31 31
24 24 24 24 24 24 24 24 25 25 26 27 27 27 27 27 27 28 29 29 29 30 31 31 31 31 32 32 32 33 32 31 31 32 32 32 32 31 31 31 31 31 32
24 24 23 24 24 24 25 24 25 25 25 25 26 27 27 27 28 28 28 28 29 29 30 30 30 30 31 32 32 32 32 31 32 32 32 33 33 32 31 31 31 32 32
25 24 24 24 24 24 24 23 24 24 24 25 26 27 27 28 28 28 28 29 29 29 29 29 29 29 30 30 31 32 32 31 31 31 32 32 32 31 31 31 31 32 32
25 25 24 24 24 24 23 23 24 25 25 25 25 26 27 28 28 29 29 29 29 29 28 28 28 29 29 29 30 30 30 30 30 30 31 31 31 31 31 31 31 31 31
25 25 24 24 24 23 23 23 24 25 25 25 25 25 26 26 27 27 27 27 28 27 27 27 28 28 28 28 28 29 28 28 29 29 30 29 29 30 30 30 31 31 32
25 25 25 24 24 23 23 23 24 24 23 23 23 23 24 25 25 26 26 26 27 27 27 27 27 28 28 28 28 28 28 29 29 29 29 29 29 30 30 30 30 31 31
24 24 25 24 24 24 24 24 23 23 22 22 22 22 23 24 24 24 25 25 25 25 26 26 27 27 27 27 27 27 28 28 28 29 29 29 29 30 30 30 31 31 31
Wind_Direction
279 274 270 268 264 260 259 260 258 256 255 252 252 253 253 252 251 252 255 256 256 256 256 255 256 257 256 256 255 255 256 256 254 253 252 252 252 252 252 252 251 252 252
277 273 268 268 265 261 258 258 256 255 255 253 252 252 253 254 254 256 258 258 258 257 256 257 257 257 256 256 255 255 256 257 256 255 254 252 253 252 253 253 254 253 252
277 274 270 269 264 263 262 260 258 256 256 254 252 254 255 255 255 257 259 259 259 257 256 257 257 258 256 256 256 255 255 257 257 256 255 254 253 252 253 253 253 253 253
277 274 270 268 264 264 266 264 260 258 256 255 254 255 255 255 256 258 258 259 259 258 258 257 256 256 256 256 256 255 255 256 257 257 257 255 255 253 252 252 252 253 254
277 274 271 270 267 265 264 264 262 261 258 256 256 257 256 256 258 260 260 259 260 260 259 258 256 256 257 256 255 255 255 256 256 256 256 257 257 254 253 252 252 253 254
277 273 272 271 268 266 263 264 265 265 262 260 259 258 258 257 258 259 261 261 262 262 261 260 258 257 257 256 255 255 254 255 255 255 254 255 257 255 253 252 253 253 254
276 274 273 271 269 265 265 266 268 267 265 264 261 260 258 256 257 258 260 261 261 263 264 263 259 258 257 257 256 256 256 255 255 254 254 254 256 256 254 253 252 252 254
275 274 272 271 269 267 268 269 268 269 267 267 264 262 260 258 257 258 259 262 264 264 264 263 262 260 258 258 258 258 257 256 255 254 254 255 257 258 256 253 251 251 253
277 274 272 269 268 267 267 267 267 268 268 266 266 266 263 261 259 259 261 263 265 265 265 264 263 261 259 259 258 257 256 256 254 254 254 255 256 257 257 255 251 251 253
281 275 271 269 267 268 267 266 266 267 266 265 265 266 265 264 260 261 262 264 265 265 264 264 262 261 260 260 259 257 257 256 255 254 255 255 255 255 255 254 251 251 252
279 275 271 269 268 266 266 266 266 266 266 265 265 264 265 264 264 263 262 264 266 265 265 264 263 262 260 260 259 258 256 256 255 255 256 255 255 255 256 255 254 251 252
278 275 271 271 270 268 267 268 268 266 265 264 264 264 264 264 264 264 263 264 265 265 264 264 263 262 260 259 258 257 255 255 255 255 255 255 255 256 257 257 256 253 252
279 277 275 274 271 270 270 270 269 267 265 265 265 265 265 264 264 264 264 264 263 263 263 263 263 262 261 258 257 256 255 255 254 254 255 255 256 256 256 258 257 255 254
281 280 277 275 272 271 271 271 271 270 267 267 266 265 266 266 265 265 264 264 263 263 263 264 264 263 261 258 257 256 254 253 254 255 255 256 256 255 255 257 257 256 254
284 284 282 280 277 274 272 273 273 270 269 269 269 267 267 267 267 266 265 263 263 263 264 264 264 263 261 259 256 255 254 253 254 255 254 254 255 257 257 258 258 256 252
288 286 284 282 280 278 275 274 273 270 269 269 269 267 267 269 268 265 264 264 264 262 261 262 262 262 260 259 257 256 253 253 253 254 254 255 256 257 260 258 257 258 254
290 289 287 284 281 279 278 276 274 272 271 271 270 268 267 269 267 265 264 264 263 263 262 261 261 261 260 259 259 256 255 255 255 255 255 255 256 257 258 257 256 259 256
294 291 290 288 283 280 278 277 275 275 273 272 271 269 268 268 266 265 265 265 264 264 263 261 261 261 261 260 261 259 258 256 255 255 255 255 256 257 257 257 257 257 257
295 294 292 288 285 282 278 276 275 276 275 273 272 270 268 266 266 266 266 265 264 264 262 261 260 261 260 259 260 259 257 256 255 254 255 256 256 257 257 257 257 257 257
298 296 293 290 288 284 280 277 276 276 275 273 272 269 267 265 266 267 266 265 264 263 262 262 261 261 260 259 258 257 256 257 256 255 255 254 255 256 257 257 258 258 256
298 295 292 289 288 284 281 278 277 276 276 274 272 270 269 268 268 268 266 267 266 264 264 264 262 262 261 260 258 258 258 258 257 256 255 254 255 256 256 257 257 257 255
298 297 294 293 292 287 283 281 279 278 276 275 274 272 271 270 268 267 268 268 269 267 265 265 263 262 262 260 260 260 258 257 256 255 255 254 254 255 256 257 257 257 255
299 297 295 292 292 289 284 281 280 279 278 277 275 274 273 271 270 269 268 267 267 265 265 265 264 262 261 262 261 259 257 256 254 254 254 254 256 257 257 257 257 258 256
299 297 296 294 291 289 286 285 282 281 280 279 278 274 272 270 270 270 268 267 267 266 265 264 264 262 262 263 261 258 256 255 253 252 253 254 256 257 257 256 256 257 256
300 298 297 295 290 289 288 286 284 283 282 281 280 277 275 273 273 272 269 268 268 267 266 265 263 263 263 261 261 258 256 254 253 251 251 253 254 255 256 255 256 256 256
300 298 297 295 293 291 290 289 287 286 284 281 279 279 277 275 275 274 271 269 268 268 267 264 264 264 261 260 259 257 256 254 252 251 251 253 254 254 254 254 255 255 255
Height
5853 5852 5852 5852 5852 5852 5852 5852 5853 5853 5854 5854 5855 5856 5857 5858 5858 5859 5860 5861 5862 5862 5863 5863 5864 5865 5866 5867 5868 5868 5869 5870 5871 5871 5872 5873 5874 5875 5876 5877 5877 5878 5879
5849 5848 5848 5848 5847 5848 5848 5848 5849 5849 5850 5850 5851 5852 5852 5853 5854 5855 5856 5856 5857 5858 5858 5859 5860 5861 5862 5862 5863 5864 5865 5866 5867 5867 5868 5869 5870 5871 5872 5873 5874 5874 5875
5845 5844 5844 5843 5843 5843 5844 5844 5844 5845 5846 5846 5847 5848 5848 5849 5850 5850 5851 5852 5852 5853 5854 5854 5855 5856 5857 5858 5858 5859 5860 5861 5862 5863 5864 5865 5866 5867 5868 5869 5870 5870 5871
5840 5839 5839 5839 5839 5839 5839 5840 5840 5841 5841 5842 5842 5843 5844 5844 5845 5846 5846 5847 5847 5848 5848 5849 5850 5851 5852 5853 5853 5854 5855 5856 5857 5858 5859 5860 5861 5862 5863 5864 5865 5866 5867
5835 5835 5834 5834 5834 5834 5835 5835 5835 5836 5836 5837 5837 5838 5838 5839 5840 5840 5841 5841 5841 5842 5843 5843 5844 5845 5846 5847 5848 5849 5850 5851 5852 5853 5854 5855 5856 5857 5858 5859 5860 5861 5863
5830 5829 5829 5829 5829 5829 5829 5829 5830 5830 5831 5831 5832 5832 5833 5833 5834 5835 5835 5835 5836 5837 5837 5837 5838 5839 5840 5841 5842 5843 5844 5845 5846 5847 5848 5849 5850 5851 5852 5853 5855 5856 5857
5825 5824 5823 5823 5823 5824 5824 5824 5824 5824 5825 5825 5825 5826 5826 5827 5828 5829 5829 5830 5830 5831 5831 5831 5832 5833 5834 5835 5836 5837 5838 5839 5840 5841 5842 5843 5844 5845 5846 5848 5849 5850 5852
5819 5818 5818 5817 5817 5818 5818 5818 5818 5818 5818 5819 5819 5819 5819 5821 5822 5822 5823 5823 5824 5824 5825 5825 5826 5826 5827 5828 5829 5830 5831 5832 5833 5834 5836 5837 5838 5839 5840 5842 5843 5845 5846
5813 5812 5811 5811 5811 5811 5811 5811 5812 5812 5812 5812 5812 5812 5813 5814 5815 5816 5816 5817 5817 5817 5818 5818 5819 5820 5820 5821 5822 5823 5825 5826 5827 5828 5829 5830 5832 5833 5834 5835 5837 5838 5840
5806 5805 5805 5805 5805 5805 5805 5805 5805 5806 5806 5806 5806 5806 5807 5807 5808 5809 5810 5810 5810 5810 5811 5811 5812 5812 5813 5814 5815 5816 5817 5819 5820 5821 5822 5824 5825 5826 5827 5828 5830 5832 5833
5800 5799 5799 5799 5799 5799 5799 5799 5799 5799 5799 5799 5799 5800 5800 5800 5800 5801 5802 5803 5803 5803 5803 5804 5804 5805 5805 5806 5807 5809 5810 5812 5813 5814 5815 5816 5818 5819 5820 5821 5823 5824 5826
5794 5793 5792 5792 5792 5792 5792 5792 5792 5792 5792 5792 5792 5792 5793 5793 5793 5794 5794 5795 5795 5795 5796 5796 5796 5797 5797 5798 5799 5801 5802 5804 5805 5806 5808 5809 5811 5812 5813 5814 5815 5817 5819
5788 5787 5786 5786 5785 5785 5785 5785 5784 5784 5784 5784 5784 5785 5785 5785 5785 5786 5786 5786 5787 5787 5788 5788 5789 5789 5790 5790 5791 5793 5794 5796 5798 5799 5800 5802 5803 5805 5806 5807 5808 5809 5811
5782 5781 5780 5779 5778 5778 5777 5777 5776 5776 5776 5776 5776 5777 5777 5777 5777 5777 5778 5778 5778 5779 5779 5780 5780 5780 5781 5782 5783 5785 5786 5788 5789 5791 5793 5794 5795 5797 5798 5799 5800 5802 5803
5776 5775 5773 5772 5771 5770 5770 5769 5769 5768 5768 5768 5768 5768 5768 5768 5769 5769 5769 5769 5770 5771 5771 5771 5771 5772 5773 5773 5775 5776 5778 5779 5781 5783 5784 5786 5787 5789 5790 5791 5792 5793 5795
5770 5769 5767 5765 5764 5763 5762 5761 5761 5760 5760 5760 5760 5760 5760 5760 5760 5760 5760 5760 5761 5762 5762 5763 5763 5763 5764 5765 5766 5767 5769 5770 5772 5774 5775 5777 5779 5780 5782 5783 5784 5785 5786
5764 5762 5760 5758 5757 5756 5755 5754 5753 5752 5752 5751 5751 5751 5751 5751 5751 5751 5752 5752 5752 5753 5754 5754 5754 5755 5756 5756 5757 5758 5759 5761 5763 5765 5767 5769 5770 5772 5773 5774 5775 5776 5777
5758 5755 5753 5751 5749 5748 5747 5746 5745 5744 5743 5743 5742 5742 5742 5742 5742 5742 5743 5743 5743 5744 5744 5745 5746 5746 5747 5747 5748 5749 5750 5751 5753 5756 5758 5760 5762 5763 5765 5766 5767 5768 5769
5751 5749 5746 5744 5742 5741 5739 5738 5737 5736 5735 5735 5734 5734 5734 5734 5734 5734 5734 5734 5734 5734 5735 5735 5736 5737 5737 5738 5739 5740 5741 5742 5744 5746 5748 5750 5752 5754 5756 5757 5758 5759 5760
5745 5742 5740 5737 5735 5733 5732 5730 5729 5728 5727 5727 5726 5726 5726 5725 5726 5725 5725 5725 5724 5724 5725 5726 5726 5727 5728 5728 5729 5730 5731 5733 5735 5736 5738 5741 5743 5745 5746 5748 5750 5751 5752
5738 5735 5733 5730 5728 5726 5724 5723 5722 5721 5719 5719 5718 5718 5717 5717 5717 5717 5717 5716 5716 5715 5716 5716 5717 5718 5718 5719 5720 5720 5722 5723 5725 5727 5729 5732 5734 5736 5737 5739 5740 5741 5743
5732 5729 5726 5724 5721 5719 5718 5716 5714 5713 5712 5711 5710 5710 5709 5709 5709 5708 5708 5708 5707 5707 5707 5707 5708 5708 5709 5709 5710 5711 5712 5714 5716 5719 5720 5722 5724 5726 5728 5730 5731 5732 5734
5725 5722 5719 5717 5714 5712 5711 5709 5707 5706 5705 5704 5703 5702 5701 5700 5700 5700 5699 5699 5699 5698 5698 5698 5699 5699 5700 5701 5701 5702 5702 5704 5707 5709 5711 5713 5715 5717 5719 5721 5722 5724 5725
5718 5716 5713 5710 5707 5705 5704 5702 5700 5698 5697 5696 5695 5694 5693 5692 5692 5691 5691 5691 5690 5690 5690 5690 5690 5691 5691 5691 5691 5693 5694 5695 5698 5700 5702 5704 5706 5708 5710 5712 5713 5715 5717
5712 5709 5706 5703 5701 5699 5697 5695 5693 5691 5690 5688 5687 5686 5685 5685 5684 5683 5683 5683 5682 5682 5681 5681 5681 5681 5682 5682 5683 5684 5685 5687 5689 5692 5694 5696 5698 5699 5701 5703 5705 5706 5708
5705 5702 5699 5696 5694 5692 5690 5688 5685 5684 5683 5681 5680 5679 5678 5677 5676 5675 5675 5674 5674 5674 5673 5673 5673 5673 5673 5673 5674 5675 5677 5679 5681 5683 5685 5687 5689 5691 5693 5694 5696 5697 5699